Overview Statistics Trail Chart Weather Telemetry Raw packets
 

This is the latest recevied weather packets stored in our database for station/object KD7CIH. If no packets are shown the sender has not sent any weather packets the latest 10 day(s).

<< 69 70 71 72 73 74 75 >>
Time Temp. Humidity Pressure Rain* Wind** Luminosity Snow
1788205237 23.89° C 26% 1017 hPa 0 mm - - -
1788204936 24.44° C 25% 1016.9 hPa 0 mm - - -
1788204639 24.44° C 25% 1017 hPa 0 mm - - -
1788204336 24.44° C 26% 1017 hPa 0 mm - - -
1788204035 23.89° C 27% 1017.1 hPa 0 mm - - -
1788203735 23.33° C 27% 1017.1 hPa 0 mm - - -
1788203437 22.78° C 27% 1017.2 hPa 0 mm - - -
1788203134 22.78° C 26% 1017.2 hPa 0 mm - - -
1788202834 22.78° C 25% 1017.5 hPa 0 mm - - -
1788202534 22.78° C 25% 1017.5 hPa 0 mm - - -
1788202235 22.78° C 25% 1017.6 hPa 0 mm - - -
1788201934 22.22° C 23% 1017.6 hPa 0 mm - - -
1788201762 22.22° C 24% 1017.7 hPa 0 mm - - -
1788201335 22.22° C 26% 1017.8 hPa 0 mm - - -
1788201033 22.22° C 27% 1018 hPa 0 mm - - -
1788200735 21.67° C 33% 1018 hPa 0 mm - - -
1788200433 21.67° C 36% 1018.1 hPa 0 mm - - -
1788200135 21.11° C 35% 1018.2 hPa 0 mm - - -
1788199834 21.11° C 35% 1018.1 hPa 0 mm - - -
1788199533 20.56° C 36% 1018.2 hPa 0 mm - - -
1788199233 20.56° C 34% 1018.2 hPa 0 mm - - -
1788198934 20.56° C 38% 1018.2 hPa 0 mm - - -
1788198634 20.56° C 39% 1018.2 hPa 0 mm - - -
1788198460 20.56° C 38% 1018.1 hPa 0 mm - - -
1788198037 20° C 38% 1018.2 hPa 0 mm - - -

* Rain latest hour (hover to see other rain measurements)
** Current wind speed in m/s (hover to see current wind gust speed)